Location: Campillo
(40.8621°N, 4.2488°W)
Time: 11:35:53
(UTC+00:00)

Cosmos 2154 Rocket - Pass Details

Date: 11 May 2021
Orbit: 965 x 997 km, 82.9° (Epoch: 13 June)

Event Time Altitude Azimuth Distance (km) Brightness Sun altitude
Rises 22:44:43 0° 347° (NNW) 3,715 8.3 -27.5°
Reaches altitude 10° 22:47:18 10° 344° (NNW) 2,758 7.3 -27.7°
Maximum altitude 22:53:26 54° 269° (W) 1,178 4.4 -28.2°
Enters shadow 22:54:32 48° 233° (SW) 1,259 4.4 -28.2°
